• In Hungary
  • List of Countries
  • For 7 days
  • Water Temperature
  • Satellite Maps
  • Weather Map
  • News
  • Weather Widgets
  • user-avatar
    Login

    Hourly Weather Thessaloniki

    Today, 14 November, Wednesday

    Time Temperature Precipitation Wind Pressure Humidity
    00:00 +14°C° 0 mm 1 mps 767 mmHg 76%
    01:00 +13°C° 0 mm 1 mps 766 mmHg 77%
    02:00 +13°C° 0 mm 1 mps 766 mmHg 79%
    03:00 +13°C° 0 mm 1 mps 766 mmHg 81%
    04:00 +13°C° 0 mm 1 mps 765 mmHg 82%
    05:00 +12°C° 0 mm 1 mps 765 mmHg 83%
    06:00 +12°C° 0 mm 1 mps 765 mmHg 84%
    07:00 +12°C° 0 mm 1 mps 765 mmHg 84%
    08:00 +13°C° 0 mm 1 mps 765 mmHg 81%
    09:00 +14°C° 0 mm 1 mps 765 mmHg 75%
    10:00 +15°C° 0 mm 1 mps 764 mmHg 68%
    11:00 +16°C° 0 mm 1 mps 764 mmHg 61%
    12:00 +18°C° 0 mm 1 mps 764 mmHg 57%
    13:00 +18°C° 0 mm 2 mps 763 mmHg 53%
    14:00 +19°C° 0 mm 2 mps 763 mmHg 48%
    15:00 +18°C° 0 mm 2 mps 763 mmHg 51%
    16:00 +18°C° 0 mm 2 mps 762 mmHg 55%
    17:00 +17°C° 0 mm 2 mps 762 mmHg 58%
    18:00 +16°C° 0 mm 2 mps 763 mmHg 62%
    19:00 +15°C° 0 mm 2 mps 763 mmHg 66%
    20:00 +14°C° 0 mm 2 mps 763 mmHg 71%
    21:00 +14°C° 0 mm 1 mps 763 mmHg 72%
    22:00 +13°C° 0 mm 1 mps 764 mmHg 74%
    23:00 +13°C° 0 mm 1 mps 764 mmHg 76%

    Tomorrow, 15 November, Thursday

    Time Temperature Precipitation Wind Pressure Humidity
    00:00 +13°C° 0 mm 1 mps 764 mmHg 75%
    01:00 +12°C° 0 mm 2 mps 764 mmHg 75%
    02:00 +12°C° 0 mm 2 mps 764 mmHg 75%
    03:00 +10°C° 0 mm 2 mps 763 mmHg 74%
    04:00 +10°C° 0 mm 3 mps 763 mmHg 74%
    05:00 +10°C° 0 mm 3 mps 763 mmHg 73%
    06:00 +10°C° 0 mm 3 mps 763 mmHg 72%
    07:00 +9°C° 0 mm 3 mps 763 mmHg 71%
    08:00 +8°C° 0 mm 4 mps 763 mmHg 70%
    09:00 +10°C° 0 mm 5 mps 763 mmHg 61%
    10:00 +13°C° 0 mm 5 mps 763 mmHg 53%
    11:00 +14°C° 0 mm 6 mps 763 mmHg 45%
    12:00 +15°C° 0 mm 6 mps 762 mmHg 42%
    13:00 +16°C° 0 mm 5 mps 762 mmHg 39%
    14:00 +16°C° 0 mm 5 mps 762 mmHg 36%
    15:00 +17°C° 0 mm 4 mps 762 mmHg 38%
    16:00 +15°C° 0 mm 4 mps 762 mmHg 40%
    17:00 +14°C° 0 mm 3 mps 762 mmHg 42%
    18:00 +13°C° 0 mm 3 mps 762 mmHg 45%
    19:00 +13°C° 0 mm 2 mps 763 mmHg 48%
    20:00 +13°C° 0 mm 2 mps 763 mmHg 50%
    21:00 +12°C° 0.1 mm 2 mps 763 mmHg 52%
    22:00 +12°C° 0.1 mm 2 mps 764 mmHg 54%
    23:00 +10°C° 0.1 mm 2 mps 764 mmHg 56%

    Day after tomorrow, 16 November, Friday

    Time Temperature Precipitation Wind Pressure Humidity
    00:00 +10°C° 0.1 mm 2 mps 764 mmHg 58%
    01:00 +9°C° 0.1 mm 2 mps 764 mmHg 60%
    02:00 +9°C° 0.1 mm 2 mps 764 mmHg 62%
    03:00 +9°C° 0.1 mm 2 mps 764 mmHg 63%
    04:00 +8°C° 0.1 mm 2 mps 764 mmHg 65%
    05:00 +8°C° 0.1 mm 2 mps 764 mmHg 67%
    06:00 +8°C° 0.1 mm 2 mps 764 mmHg 67%
    07:00 +8°C° 0.1 mm 2 mps 764 mmHg 67%
    08:00 +7°C° 0.1 mm 2 mps 765 mmHg 68%
    09:00 +9°C° 0 mm 2 mps 764 mmHg 62%
    10:00 +10°C° 0 mm 2 mps 764 mmHg 56%
    11:00 +13°C° 0 mm 2 mps 764 mmHg 50%
    12:00 +13°C° 0.1 mm 2 mps 764 mmHg 48%
    13:00 +14°C° 0.1 mm 2 mps 764 mmHg 46%
    14:00 +14°C° 0.1 mm 2 mps 763 mmHg 43%
    15:00 +14°C° 0.1 mm 2 mps 763 mmHg 46%
    16:00 +13°C° 0.1 mm 2 mps 763 mmHg 48%
    17:00 +12°C° 0.1 mm 1 mps 764 mmHg 51%
    18:00 +12°C° 0.1 mm 2 mps 764 mmHg 54%
    19:00 +10°C° 0.1 mm 2 mps 765 mmHg 57%
    20:00 +10°C° 0.1 mm 2 mps 765 mmHg 60%
    21:00 +9°C° 0.2 mm 2 mps 765 mmHg 62%
    22:00 +9°C° 0.2 mm 2 mps 766 mmHg 64%
    23:00 +9°C° 0.2 mm 2 mps 766 mmHg 66%

    17 November, Saturday

    Time Temperature Precipitation Wind Pressure Humidity
    00:00 +9°C° 0.3 mm 2 mps 766 mmHg 67%
    01:00 +9°C° 0.3 mm 3 mps 766 mmHg 68%
    02:00 +9°C° 0.3 mm 3 mps 766 mmHg 69%
    03:00 +8°C° 0.2 mm 3 mps 766 mmHg 70%
    04:00 +8°C° 0.2 mm 2 mps 766 mmHg 71%
    05:00 +8°C° 0.2 mm 2 mps 766 mmHg 72%
    06:00 +7°C° 0.1 mm 2 mps 766 mmHg 72%
    07:00 +7°C° 0.1 mm 2 mps 767 mmHg 72%
    08:00 +7°C° 0.1 mm 2 mps 767 mmHg 72%
    09:00 +8°C° 0 mm 2 mps 767 mmHg 67%
    10:00 +9°C° 0 mm 2 mps 767 mmHg 63%
    11:00 +10°C° 0 mm 2 mps 767 mmHg 58%
    12:00 +12°C° 0 mm 2 mps 766 mmHg 56%
    13:00 +12°C° 0 mm 2 mps 766 mmHg 53%
    14:00 +13°C° 0 mm 2 mps 765 mmHg 51%
    15:00 +12°C° 0 mm 2 mps 765 mmHg 52%
    16:00 +12°C° 0 mm 2 mps 765 mmHg 53%
    17:00 +10°C° 0 mm 2 mps 765 mmHg 55%
    18:00 +10°C° 0 mm 2 mps 766 mmHg 57%
    19:00 +9°C° 0 mm 2 mps 766 mmHg 58%
    20:00 +9°C° 0 mm 2 mps 767 mmHg 60%
    21:00 +9°C° 0.2 mm 3 mps 767 mmHg 61%
    22:00 +9°C° 0.2 mm 3 mps 767 mmHg 62%
    23:00 +9°C° 0.2 mm 3 mps 767 mmHg 63%

    18 November, Sunday

    Time Temperature Precipitation Wind Pressure Humidity
    00:00 +9°C° 0.3 mm 3 mps 766 mmHg 63%
    01:00 +8°C° 0.3 mm 3 mps 766 mmHg 64%
    02:00 +8°C° 0.3 mm 3 mps 766 mmHg 64%
    03:00 +8°C° 0.2 mm 3 mps 766 mmHg 64%
    04:00 +8°C° 0.2 mm 3 mps 765 mmHg 65%
    05:00 +8°C° 0.2 mm 3 mps 765 mmHg 65%
    06:00 +8°C° 0.1 mm 2 mps 765 mmHg 65%
    07:00 +8°C° 0.1 mm 2 mps 765 mmHg 65%
    08:00 +8°C° 0.1 mm 2 mps 765 mmHg 65%
    09:00 +8°C° 0.3 mm 2 mps 765 mmHg 64%
    10:00 +9°C° 0.3 mm 2 mps 765 mmHg 62%
    11:00 +9°C° 0.3 mm 2 mps 765 mmHg 61%
    12:00 +10°C° 0.4 mm 2 mps 765 mmHg 62%
    13:00 +10°C° 0.4 mm 2 mps 764 mmHg 62%
    14:00 +10°C° 0.4 mm 2 mps 763 mmHg 63%
    15:00 +10°C° 0.5 mm 2 mps 763 mmHg 66%
    16:00 +10°C° 0.5 mm 2 mps 763 mmHg 69%
    17:00 +9°C° 0.5 mm 2 mps 763 mmHg 72%
    18:00 +9°C° 0.3 mm 2 mps 763 mmHg 73%
    19:00 +9°C° 0.3 mm 2 mps 762 mmHg 75%
    20:00 +9°C° 0.3 mm 2 mps 762 mmHg 76%
    21:00 +10°C° 0.4 mm 1 mps 762 mmHg 77%
    22:00 +9°C° 0.4 mm 1 mps 762 mmHg 78%
    23:00 +9°C° 0.4 mm 1 mps 761 mmHg 78%

    19 November, Monday

    Time Temperature Precipitation Wind Pressure Humidity
    00:00 +9°C° 0.3 mm 1 mps 761 mmHg 79%
    01:00 +9°C° 0.3 mm 1 mps 760 mmHg 80%
    02:00 +9°C° 0.3 mm 1 mps 760 mmHg 81%
    03:00 +9°C° 0.2 mm 1 mps 759 mmHg 80%
    04:00 +9°C° 0.2 mm 1 mps 759 mmHg 80%
    05:00 +9°C° 0.2 mm 1 mps 758 mmHg 80%
    06:00 +8°C° 0.2 mm 2 mps 758 mmHg 79%
    07:00 +8°C° 0.2 mm 2 mps 758 mmHg 79%
    08:00 +9°C° 0.2 mm 2 mps 758 mmHg 78%
    09:00 +9°C° 0.2 mm 2 mps 757 mmHg 76%
    10:00 +9°C° 0.2 mm 2 mps 757 mmHg 74%
    11:00 +10°C° 0.2 mm 2 mps 757 mmHg 72%
    12:00 +10°C° 0.9 mm 2 mps 756 mmHg 75%
    13:00 +9°C° 0.9 mm 3 mps 756 mmHg 78%
    14:00 +9°C° 0.9 mm 3 mps 755 mmHg 81%
    15:00 +9°C° 1.3 mm 3 mps 755 mmHg 82%
    16:00 +9°C° 1.3 mm 2 mps 755 mmHg 84%
    17:00 +9°C° 1.3 mm 2 mps 755 mmHg 85%
    18:00 +9°C° 0.8 mm 2 mps 755 mmHg 85%
    19:00 +9°C° 0.8 mm 2 mps 755 mmHg 86%
    20:00 +9°C° 0.8 mm 2 mps 756 mmHg 86%
    21:00 +9°C° 0.5 mm 2 mps 756 mmHg 86%
    22:00 +9°C° 0.5 mm 2 mps 756 mmHg 85%
    23:00 +9°C° 0.5 mm 2 mps 756 mmHg 85%
    Show more